DELTA 1 R/B, 515

Orbit data source: Space-Track

DELTA 1 R/B, 515 is space debris originally from a launch on Thu, 13 Dec 1962 UTC launched from the Air Force Eastern Test Range (AFETR). Debris objects in space refer to the collection of defunct objects orbiting the Earth. Examples of debris include non-operational satellites, rocket bodies, and fragments generated from explosions, collisions, or faulty payload assembly.

Loading next visibility...
Identifier
515, 1962-068B
Orbit
Active
Last TLE update
1 day ago
Origin
Manufacturer
ABL
Mission
Spacecraft
Bus & Motor
ALTAIR, Unknown motor
Mass
24 kg wet, 24 kg dry
Launch date (UTC)
1962-12-13 (63 years ago)
Launch vehicle
Unknown
Launch site
Air Force Eastern Test Range (AFETR)
Object type
Payload
Rocket body
Debris
Shape & HBR
Cyl, 1.5 m
Radar Cross Section
0.687 m², Medium (>0.1 m² and < 1m²)

Expand to show TLE details & history

TLE from 1 day ago
0 DELTA 1 R/B
1 00515U 62068B   25188.01815454 -.00000016  00000-0  00000-0 0  9993
2 00515  47.5176  80.2767 2832667 219.7529 115.7322  7.79261173780944
Epoch: 2025-07-07T00:26Z
TLE epoch observation values (Epoch: 2025-07-07T00:26:08.552Z)
Latitude
-0.00001°
Longitude
148.50754°
Altitude
6,261.171 km
Speed
5.099 km/s
True Right ascension
05h 21m 06s
True Declination
0° 00' 00"
Sunlit
Object was in daylight at epoch
Visualization orbit readout
Latitude
47.58032°
Longitude
-120.62603°
Altitude
5,691.225 km
Speed
5.387 km/s
Apparent Right ascension
10h 21m 15s
Apparent Declination
21° 31' 60"
Sunlit
Object is in daylight
Visualization observer readout
Local Sidereal Time
20:33:18
Azimuth
332.572° NNW
Elevation
-23.593°
Doppler factor
1
Orbital elements
Apogee altitude
7,414.001 km
Perigee altitude
1,325.082 km
Semi-major axis
10,747.678 km
Eccentricity
0.28327
Inclination
47.5176°
RAAN
80.2767°
Arg. of periapsis
219.7529°
True anomaly
Unknown
Mean anomaly
115.7322°
Eccentric anomaly
Unknown
Mean motion
1.94792 °/min
Orbital period
184.81 mins
BSTAR
0
Loading maneuver chart data...
Loading SW <> Apogee altitude chart data...
Loading historical data...
Loading historical data...
Loading historical data...
Loading historical data...
Loading historical data...
Loading historical data...
Loading historical data...
Other satellites on launch #68 in the year 1962 (1962-12-13 UTC)

DELTA 1 R/B Visibility forecast

Observer location: undefined°, undefined°

Span
Click to sort rows by Start time (UTC) header in descending order
Start Az.
Max El. time (UTC)
Max El. Az.
Max El.
End time (UTC)
End Az.
75 mins2025-07-08 16:19:34.745Z174.234° S2025-07-08 16:55:34.745Z113.89° SE33.995°2025-07-08 17:34:34.745Z57.266° ENE
83 mins2025-07-08 19:34:34.745Z229.606° WSW2025-07-08 20:21:34.745Z215.44° SW44.997°2025-07-08 20:57:34.745Z64.281° ENE
68 mins2025-07-08 23:09:34.745Z277.42° WNW2025-07-08 23:56:34.745Z9.305° NNE44.033°2025-07-09 00:17:34.745Z95.969° ESE
43 mins2025-07-09 02:48:34.745Z302.249° NW2025-07-09 03:18:34.745Z233.236° WSW41.006°2025-07-09 03:31:34.745Z155.16° SSE
|